This demonstration page uses our WeatherBlox Daily Observations layout. Learn more.

Hourly Observations for July 23, 2020

Temp ( °F °C ) Dew Point ( °F °C ) Humidity (%) Winds ( mph kmh ) Pressure ( in mb ) Visibility ( mi km ) Precip ( " mm )
12:15 am 00:15 Partly Cloudy 75 23.7 71 21.5 88 88 SE 7 11 29.89 1012 10 16.0934 0 0
12:35 am 00:35 Clear 74 23.6 71 21.5 88 88 SE 9 15 29.89 1012 10 16.0934 0 0
12:55 am 00:55 Clear 74 23.5 70 21.3 88 88 SE 9 15 29.89 1012 10 16.0934 0 0
1:15 am 01:15 Clear 74 23.5 71 21.4 88 88 SE 9 15 29.9 1012 10 16.0934 0 0
1:35 am 01:35 Clear 74 23.5 71 21.5 89 89 SSE 13 20 29.89 1012 10 16.0934 0 0
1:55 am 01:55 Clear 74 23.1 70 21.3 90 90 SSE 9 15 29.89 1012 10 16.0934 0 0
2:15 am 02:15 Clear 74 23.1 70 21.1 89 89 SSE 9 15 29.89 1012 10 16.0934 0 0
2:35 am 02:35 Clear 73 22.8 70 21.2 91 91 SSE 10 17 29.89 1012 10 16.0934 0 0
2:55 am 02:55 Clear 73 22.6 70 21.2 92 92 SSE 8 13 29.9 1012 10 16.0934 0 0
3:15 am 03:15 Clear 73 22.6 70 21 91 91 SSE 6 9 29.9 1012 10 16.0934 0 0
3:35 am 03:35 Clear 72 22.2 69 20.8 92 92 SE 7 11 29.91 1013 10 16.0934 0 0
3:55 am 03:55 Clear 72 22.1 70 21 94 94 SSE 7 11 29.9 1013 10 16.0934 0 0
4:15 am 04:15 Clear 72 22 70 20.9 94 94 SSE 6 9 29.9 1013 10 16.0934 0 0
4:35 am 04:35 Clear 72 22 69 20.8 93 93 SSE 8 13 29.91 1013 10 16.0934 0 0
4:55 am 04:55 Clear 72 22 69 20.6 92 92 SSE 8 13 29.91 1013 10 16.0934 0 0
5:15 am 05:15 Clear 71 21.7 69 20.5 93 93 SE 9 15 29.9 1013 10 16.0934 0 0
5:35 am 05:35 Clear 71 21.8 69 20.6 93 93 SE 9 15 29.9 1013 10 16.0934 0 0
5:55 am 05:55 Clear 71 21.7 69 20.5 93 93 SSE 8 13 29.9 1013 10 16.0934 0 0
6:15 am 06:15 Clear 72 22 69 20.6 92 92 SSE 9 15 29.91 1013 10 16.0934 0 0
6:35 am 06:35 Sunny 72 22 69 20.6 92 92 SSE 8 13 29.92 1013 10 16.0934 0 0
6:55 am 06:55 Sunny 72 22 69 20.6 92 92 SSE 8 13 29.92 1013 10 16.0934 0 0
7:15 am 07:15 Sunny 72 22.1 69 20.8 92 92 SSE 9 15 29.92 1013 10 16.0934 0 0
7:35 am 07:35 Sunny 72 22.3 69 20.8 91 91 SSE 9 15 29.92 1013 10 16.0934 0 0
7:55 am 07:55 Sunny 73 22.7 70 21.1 91 91 SSE 12 19 29.93 1013 10 16.0934 0 0
8:15 am 08:15 Sunny 74 23.2 70 21.2 89 89 S 12 19 29.91 1013 10 16.0934 0 0
8:35 am 08:35 Sunny 76 24.3 70 21.3 83 83 S 12 19 29.91 1013 10 16.0934 0 0
8:55 am 08:55 Sunny 77 25.1 71 21.5 81 81 S 15 24 29.91 1013 10 16.0934 0 0
9:15 am 09:15 Sunny 78 25.7 71 21.6 78 78 S 14 22 29.9 1013 10 16.0934 0 0
9:35 am 09:35 Sunny 80 26.4 71 21.4 74 74 S 13 20 29.91 1013 10 16.0934 0 0
9:55 am 09:55 Sunny 81 27.1 71 21.5 72 72 S 13 20 29.9 1013 10 16.0934 0 0
10:15 am 10:15 Sunny 82 27.7 70 21.3 68 68 S 13 20 29.9 1012 10 16.0934 0 0
10:35 am 10:35 Sunny 83 28.1 71 21.4 67 67 S 15 24 29.87 1012 10 16.0934 0 0
10:55 am 10:55 Sunny 83 28.2 71 21.5 67 67 S 14 22 29.88 1012 10 16.0934 0 0
11:15 am 11:15 Sunny 85 29.2 71 21.6 64 64 S 16 26 29.87 1012 10 16.0934 0 0
11:35 am 11:35 Sunny 84 28.8 71 21.6 65 65 S 15 24 29.87 1011 10 16.0934 0 0
11:55 am 11:55 Sunny 85 29.2 71 21.9 65 65 SSE 14 22 29.87 1012 10 16.0934 0 0
12:15 pm 12:15 Sunny 86 30.1 72 22.3 63 63 S 17 28 29.86 1011 10 16.0934 0 0
12:35 pm 12:35 Sunny 87 30.6 72 22.1 60 60 S 18 30 29.85 1011 10 16.0934 0 0
12:55 pm 12:55 Sunny 87 30.7 71 21.8 59 59 S 16 26 29.84 1011 10 16.0934 0 0
1:15 pm 13:15 Sunny 86 30.1 72 22.3 63 63 SSE 14 22 29.85 1011 10 16.0934 0 0
1:35 pm 13:35 Sunny 87 30.8 73 22.5 61 61 SSE 14 22 29.85 1011 10 16.0934 0 0
1:55 pm 13:55 Sunny 88 30.9 72 22.1 59 59 SSE 16 26 29.85 1011 10 16.0934 0 0
2:15 pm 14:15 Sunny 86 30.2 71 21.4 59 59 SSE 16 26 29.85 1011 10 16.0934 0 0
2:35 pm 14:35 Sunny 88 31 72 22.2 59 59 SSE 14 22 29.84 1010 10 16.0934 0 0
2:55 pm 14:55 Sunny 88 31.1 70 21.3 56 56 SSE 17 28 29.83 1010 10 16.0934 0 0
3:15 pm 15:15 Sunny 86 30 70 21.3 60 60 SSE 14 22 29.84 1010 10 16.0934 0 0
3:35 pm 15:35 Sunny 86 30 71 21.9 62 62 S 13 20 29.84 1010 10 16.0934 0 0
3:55 pm 15:55 Sunny 86 29.9 71 21.9 62 62 SSE 14 22 29.84 1010 10 16.0934 0 0
4:15 pm 16:15 Sunny 88 31 71 21.9 58 58 SSE 16 26 29.83 1010 10 16.0934 0 0
4:35 pm 16:35 Sunny 88 30.9 72 22 59 59 SSE 14 22 29.82 1010 10 16.0934 0 0
4:55 pm 16:55 Sunny 87 30.7 72 22.1 60 60 SSE 16 26 29.81 1010 10 16.0934 0 0
5:15 pm 17:15 Partly Cloudy 87 30.8 71 21.8 59 59 SSE 14 22 29.81 1010 10 16.0934 0 0
5:35 pm 17:35 Partly Cloudy 88 30.9 71 21.5 57 57 SSE 14 22 29.8 1009 10 16.0934 0 0
5:55 pm 17:55 Sunny 88 31.2 71 21.4 56 56 SSE 14 22 29.81 1009 10 16.0934 0 0
6:15 pm 18:15 Sunny 88 31 71 21.4 57 57 SSE 13 20 29.8 1009 10 16.0934 0 0
6:35 pm 18:35 Sunny 88 31 71 21.8 58 58 SSE 13 20 29.79 1009 10 16.0934 0 0
6:55 pm 18:55 Sunny 87 30.5 71 21.5 59 59 SSE 15 24 29.79 1009 10 16.0934 0 0
7:15 pm 19:15 Sunny 86 30.1 70 21 58 58 SSE 10 17 29.8 1009 10 16.0934 0 0
7:35 pm 19:35 Sunny 85 29.7 70 21.2 60 60 SSE 12 19 29.8 1009 10 16.0934 0 0
7:55 pm 19:55 Sunny 83 28.5 69 20.8 63 63 SSE 10 17 29.81 1009 10 16.0934 0 0
8:15 pm 20:15 Sunny 82 27.8 69 20.6 65 65 SSE 9 15 29.82 1010 10 16.0934 0 0
8:35 pm 20:35 Sunny 81 27.2 70 21 69 69 SSE 8 13 29.84 1010 10 16.0934 0 0
8:55 pm 20:55 Sunny 80 26.5 70 21.3 73 73 SE 9 15 29.84 1011 10 16.0934 0 0
9:15 pm 21:15 Clear 79 26.1 71 21.5 76 76 SE 9 15 29.85 1011 10 16.0934 0 0
9:35 pm 21:35 Clear 78 25.8 71 21.7 78 78 SSE 9 15 29.86 1011 10 16.0934 0 0
9:55 pm 21:55 Clear 78 25.6 71 21.6 79 79 SE 10 17 29.85 1011 10 16.0934 0 0
10:15 pm 22:15 Clear 78 25.5 71 21.5 79 79 SE 10 17 29.86 1011 10 16.0934 0 0
10:35 pm 22:35 Clear 77 25.2 71 21.5 80 80 SSE 13 20 29.88 1012 10 16.0934 0 0
10:55 pm 22:55 Clear 78 25.5 71 21.6 79 79 SSE 10 17 29.88 1012 10 16.0934 0 0
11:15 pm 23:15 Clear 78 25.6 70 21.3 77 77 SSE 12 19 29.88 1012 10 16.0934 0 0
11:35 pm 23:35 Clear 78 25.6 70 21.1 76 76 SSE 12 19 29.87 1012 10 16.0934 0 0
11:55 pm 23:55 Clear 78 25.5 70 21 76 76 SSE 10 17 29.88 1012 10 16.0934 0 0

Powered by AerisWeather